CLUSTER II-FM5 (RUMBA)

Last updated on Aug. 6, 2020, 5:31 a.m. UTC

1 26463U 00045A   20219.16445074 -.00000063  00000-0  00000-0 0  9995
2 26463 135.6943 343.0156 5369902 190.0799 359.2951  0.44217341 10747
UTC
Height (km)
Latitude
Longitude
Inclination
Orbital Period
UTC large
Height (km)
Speed (km/s)
/
Latitude / Longitude
Inclination (degrees)
Orbital Period (minutes)
Azimuth
Elevation
Range (km)
Doppler Factor
iOS Compass Heading
iOS Angle

Next 30 passes for location: Hong Kong

Rise time Rise Azimuth (degrees) Set time Set Azimuth (degrees) Duration Max altitude (degrees)

No matching passes for this satellites